Location: Oshawa
(43.9000°N, 78.8670°W)
Time: 09:38:04
(UTC-04:00)

CZ-4C R/B - Visible Passes

Search period start: 04 July 2015 00:00
Search period end: 14 July 2015 00:00
Orbit: 426 x 534 km, 97.5° (Epoch: 04 July)

Date Brightness Start Highest point End Pass type
(mag) Time Alt. Az. Time Alt. Az. Time Alt. Az.
04 Jul 4.7 00:36:43 25° W 00:36:44 25° W 00:39:44 10° NW visible
04 Jul 5.5 22:36:37 10° E 22:37:49 12° ENE 22:39:10 10° NE visible
05 Jul 3.4 00:10:41 52° WSW 00:10:50 53° W 00:14:19 10° NNW visible
05 Jul 3.0 23:44:39 63° ESE 23:45:00 70° ENE 23:48:32 10° N visible
06 Jul 4.1 23:18:37 30° E 23:19:15 32° ENE 23:22:26 10° N visible
07 Jul 5.3 00:52:52 16° W 00:52:52 16° W 00:54:59 10° NW visible
07 Jul 5.0 22:52:33 15° E 22:53:32 17° ENE 22:55:52 10° NNE visible
08 Jul 4.3 00:26:49 32° W 00:26:49 32° W 00:29:55 10° NNW visible
09 Jul 3.0 00:00:45 73° WSW 00:00:48 73° WSW 00:04:17 10° NNW visible
09 Jul 3.4 23:34:41 48° E 23:34:58 49° ENE 23:38:20 10° N visible
10 Jul 5.8 01:08:57 10° W 01:08:57 10° W 01:09:14 10° W visible
10 Jul 4.5 23:08:36 22° E 23:09:11 24° ENE 23:12:02 10° NNE visible
11 Jul 5.0 00:42:52 21° W 00:42:52 21° W 00:45:12 10° NW visible
11 Jul 5.3 22:42:31 11° E 22:43:28 12° ENE 22:45:00 10° NE visible
12 Jul 3.8 00:16:46 43° W 00:16:46 43° W 00:19:49 10° NNW visible
12 Jul 2.9 23:50:40 80° ENE 23:50:40 80° ENE 23:54:02 10° N visible
13 Jul 3.8 23:24:33 35° E 23:24:46 35° ENE 23:27:55 10° N visible
